| time (UTC) | temp F | wind direction | speed MPH | gust MPH | rain 1hr in | rain 24hr in | rain mn in | humidity % | barometer mb |
| 20260831124543 | 53 | 322 | 0.0 | 1.0 | 0.00 | 0.00 | 0.00 | 92 | 1010.6 |
| 20260831123541 | 53 | 322 | 1.0 | 2.0 | 0.00 | 0.00 | 0.00 | 91 | 1010.6 |
| 20260831122541 | 53 | 326 | 0.0 | 2.0 | 0.00 | 0.00 | 0.00 | 90 | 1010.7 |
| 20260831122007 | 53 | 326 | 0.0 | 1.0 | 0.00 | 0.00 | 0.00 | 91 | 1010.8 |
| 20260831120502 | 53 | 326 | 0.0 | 2.0 | 0.00 | 0.00 | 0.00 | 91 | 1010.8 |
| 20260831115502 | 53 | 334 | 0.0 | 0.0 | 0.00 | 0.00 | 0.00 | 91 | 1010.7 |
| 20260831114445 | 52 | 112 | 0.0 | 0.0 | 0.00 | 0.00 | 0.00 | 92 | 1010.7 |
| 20260831113915 | 52 | 112 | 0.0 | 0.0 | 0.00 | 0.00 | 0.00 | 92 | 1010.6 |
| 20260831112426 | 52 | 112 | 0.0 | 0.0 | 0.00 | 0.00 | 0.00 | 91 | 1010.5 |
| 20260831111424 | 52 | 112 | 0.0 | 0.0 | 0.00 | 0.00 | 0.00 | 90 | 1010.3 |
| 20260831110402 | 52 | 112 | 0.0 | 0.0 | 0.00 | 0.00 | 0.00 | 91 | 1010.3 |
| 20260831105830 | 52 | 112 | 0.0 | 0.0 | 0.00 | 0.00 | 0.00 | 91 | 1010.2 |
| 20260831104336 | 52 | 112 | 0.0 | 0.0 | 0.00 | 0.00 | 0.00 | 91 | 1010.2 |
| 20260831103336 | 52 | 112 | 0.0 | 0.0 | 0.00 | 0.00 | 0.00 | 90 | 1010.1 |
| 20260831102336 | 52 | 112 | 0.0 | 0.0 | 0.00 | 0.00 | 0.00 | 89 | 1010.1 |
| 20260831101328 | 52 | 112 | 0.0 | 0.0 | 0.00 | 0.00 | 0.00 | 89 | 1010.0 |
| 20260831100327 | 52 | 112 | 0.0 | 0.0 | 0.00 | 0.00 | 0.00 | 89 | 1010.0 |
| 20260831095323 | 53 | 112 | 0.0 | 0.0 | 0.00 | 0.00 | 0.00 | 89 | 1010.0 |
| 20260831094323 | 53 | 112 | 0.0 | 0.0 | 0.00 | 0.00 | 0.00 | 89 | 1010.0 |
| 20260831093322 | 53 | 112 | 0.0 | 0.0 | 0.00 | 0.00 | 0.00 | 89 | 1010.1 |
| 20260831092306 | 54 | 112 | 0.0 | 0.0 | 0.00 | 0.00 | 0.00 | 88 | 1010.0 |
| 20260831091252 | 54 | 95 | 0.0 | 0.0 | 0.00 | 0.00 | 0.00 | 87 | 1010.1 |
| 20260831090252 | 54 | 95 | 0.0 | 1.0 | 0.00 | 0.00 | 0.00 | 87 | 1010.1 |
| 20260831085248 | 55 | 159 | 0.0 | 1.0 | 0.00 | 0.00 | 0.00 | 87 | 1010.1 |
| 20260831084232 | 55 | 169 | 0.0 | 0.0 | 0.00 | 0.00 | 0.00 | 85 | 1010.0 |
| 20260831083701 | 55 | 169 | 0.0 | 0.0 | 0.00 | 0.00 | 0.00 | 85 | 1010.2 |
| 20260831082704 | 55 | 169 | 0.0 | 0.0 | 0.00 | 0.00 | 0.00 | 84 | 1010.2 |
| 20260831081216 | 56 | 169 | 0.0 | 1.0 | 0.00 | 0.00 | 0.00 | 84 | 1010.1 |
| 20260831080214 | 56 | 129 | 0.0 | 0.0 | 0.00 | 0.00 | 0.00 | 83 | 1010.3 |
| 20260831075201 | 57 | 135 | 0.0 | 1.0 | 0.00 | 0.00 | 0.00 | 82 | 1010.3 |
| 20260831074159 | 57 | 137 | 0.0 | 2.0 | 0.00 | 0.00 | 0.00 | 82 | 1010.4 |
| 20260831073154 | 58 | 132 | 0.0 | 0.0 | 0.00 | 0.00 | 0.00 | 81 | 1010.4 |
| 20260831072610 | 58 | 140 | 0.0 | 2.0 | 0.00 | 0.00 | 0.00 | 80 | 1010.2 |
| 20260831071613 | 58 | 111 | 0.0 | 2.0 | 0.00 | 0.00 | 0.00 | 79 | 1010.1 |
| 20260831070115 | 59 | 127 | 0.0 | 1.0 | 0.00 | 0.00 | 0.00 | 79 | 1010.2 |
| 20260831065113 | 59 | 124 | 0.0 | 2.0 | 0.00 | 0.00 | 0.00 | 77 | 1010.2 |
| 20260831064111 | 60 | 103 | 0.0 | 2.0 | 0.00 | 0.00 | 0.00 | 77 | 1010.2 |
| 20260831063105 | 60 | 177 | 0.0 | 3.0 | 0.00 | 0.00 | 0.00 | 76 | 1010.2 |
| 20260831062101 | 61 | 121 | 0.0 | 1.0 | 0.00 | 0.00 | 0.00 | 74 | 1010.2 |
| 20260831061057 | 62 | 175 | 0.0 | 3.0 | 0.00 | 0.00 | 0.00 | 73 | 1010.2 |
| 20260831060053 | 63 | 159 | 0.0 | 2.0 | 0.00 | 0.00 | 0.00 | 71 | 1010.2 |
| 20260831055052 | 63 | 192 | 1.0 | 3.0 | 0.00 | 0.00 | 0.00 | 70 | 1010.1 |
| 20260831054049 | 64 | 171 | 1.0 | 5.0 | 0.00 | 0.00 | 0.00 | 69 | 1010.0 |
| 20260831053046 | 64 | 122 | 1.0 | 6.0 | 0.00 | 0.00 | 0.00 | 68 | 1010.1 |
| 20260831052040 | 65 | 151 | 2.0 | 6.0 | 0.00 | 0.00 | 0.00 | 68 | 1010.1 |
| 20260831051040 | 65 | 109 | 0.0 | 2.0 | 0.00 | 0.00 | 0.00 | 67 | 1010.1 |
| 20260831050020 | 66 | 149 | 0.0 | 2.0 | 0.00 | 0.00 | 0.00 | 66 | 1010.1 |
| 20260831045504 | 67 | 119 | 0.0 | 2.0 | 0.00 | 0.00 | 0.00 | 65 | 1010.0 |
| 20260831043946 | 67 | 111 | 0.0 | 1.0 | 0.00 | 0.00 | 0.00 | 63 | 1010.0 |
| 20260831043414 | 68 | 111 | 0.0 | 2.0 | 0.00 | 0.00 | 0.00 | 62 | 1010.0 |
| 20260831041939 | 69 | 183 | 0.0 | 0.0 | 0.00 | 0.00 | 0.00 | 60 | 1009.9 |
| 20260831040928 | 70 | 198 | 1.0 | 3.0 | 0.00 | 0.00 | 0.00 | 58 | 1009.8 |
| 20260831035858 | 71 | 163 | 1.0 | 3.0 | 0.00 | 0.00 | 0.00 | 57 | 1009.7 |
| 20260831034847 | 72 | 144 | 0.0 | 2.0 | 0.00 | 0.00 | 0.00 | 55 | 1009.6 |
| 20260831033834 | 73 | 97 | 1.0 | 3.0 | 0.00 | 0.00 | 0.00 | 54 | 1009.5 |
| 20260831032834 | 74 | 117 | 0.0 | 3.0 | 0.00 | 0.00 | 0.00 | 53 | 1009.4 |
| 20260831032306 | 74 | 113 | 2.0 | 6.0 | 0.00 | 0.00 | 0.00 | 52 | 1009.3 |
| 20260831030825 | 75 | 115 | 1.0 | 4.0 | 0.00 | 0.00 | 0.00 | 51 | 1009.2 |
| 20260831025825 | 76 | 142 | 1.0 | 4.0 | 0.00 | 0.00 | 0.00 | 50 | 1009.3 |
| 20260831025306 | 77 | 180 | 1.0 | 5.0 | 0.00 | 0.00 | 0.00 | 48 | 1009.2 |
| 20260831024253 | 78 | 155 | 1.0 | 5.0 | 0.00 | 0.00 | 0.00 | 47 | 1009.2 |
| 20260831022815 | 79 | 170 | 2.0 | 5.0 | 0.00 | 0.00 | 0.00 | 45 | 1009.1 |
| 20260831021813 | 80 | 161 | 2.0 | 9.0 | 0.00 | 0.00 | 0.00 | 44 | 1009.1 |
| 20260831020813 | 81 | 143 | 3.0 | 9.0 | 0.00 | 0.00 | 0.00 | 43 | 1009.2 |
| 20260831015811 | 82 | 148 | 2.0 | 6.0 | 0.00 | 0.00 | 0.00 | 43 | 1009.2 |
| 20260831014811 | 83 | 103 | 3.0 | 9.0 | 0.00 | 0.00 | 0.00 | 42 | 1009.2 |
| 20260831013808 | 83 | 188 | 4.0 | 10.0 | 0.00 | 0.00 | 0.00 | 42 | 1009.2 |
| 20260831012807 | 84 | 117 | 4.0 | 11.0 | 0.00 | 0.00 | 0.00 | 42 | 1009.2 |
| 20260831011805 | 85 | 128 | 4.0 | 10.0 | 0.00 | 0.00 | 0.00 | 41 | 1009.2 |
| 20260831010804 | 85 | 146 | 4.0 | 11.0 | 0.00 | 0.00 | 0.00 | 41 | 1009.2 |
| 20260831005805 | 86 | 149 | 4.0 | 10.0 | 0.00 | 0.00 | 0.00 | 40 | 1009.1 |
| 20260831004804 | 86 | 117 | 4.0 | 10.0 | 0.00 | 0.00 | 0.00 | 40 | 1008.9 |
| 20260831003801 | 87 | 167 | 4.0 | 11.0 | 0.00 | 0.00 | 0.00 | 40 | 1009.1 |
| 20260831002758 | 87 | 114 | 3.0 | 10.0 | 0.00 | 0.00 | 0.00 | 40 | 1009.1 |
| 20260831001758 | 88 | 149 | 5.0 | 14.0 | 0.00 | 0.00 | 0.00 | 38 | 1009.1 |
| 20260831000758 | 89 | 117 | 3.0 | 9.0 | 0.00 | 0.00 | 0.00 | 37 | 1009.1 |
| 20260830235754 | 89 | 146 | 3.0 | 12.0 | 0.00 | 0.00 | 0.00 | 36 | 1009.2 |
| 20260830234752 | 89 | 133 | 3.0 | 10.0 | 0.00 | 0.00 | 0.00 | 36 | 1009.1 |
| 20260830233752 | 89 | 142 | 3.0 | 11.0 | 0.00 | 0.00 | 0.00 | 36 | 1009.1 |
| 20260830233224 | 89 | 128 | 3.0 | 10.0 | 0.00 | 0.00 | 0.00 | 35 | 1009.2 |
| 20260830231749 | 89 | 105 | 3.0 | 7.0 | 0.00 | 0.00 | 0.00 | 35 | 1009.2 |
| 20260830230749 | 88 | 106 | 3.0 | 10.0 | 0.00 | 0.00 | 0.00 | 35 | 1009.3 |
| 20260830225747 | 88 | 183 | 4.0 | 12.0 | 0.00 | 0.00 | 0.00 | 35 | 1009.5 |
| 20260830224746 | 88 | 108 | 3.0 | 8.0 | 0.00 | 0.00 | 0.00 | 35 | 1009.6 |
| 20260830223746 | 88 | 147 | 3.0 | 9.0 | 0.00 | 0.00 | 0.00 | 35 | 1009.8 |
| 20260830222747 | 88 | 83 | 4.0 | 9.0 | 0.00 | 0.00 | 0.00 | 36 | 1009.9 |
| 20260830221740 | 87 | 147 | 4.0 | 12.0 | 0.00 | 0.00 | 0.00 | 36 | 1010.1 |
| 20260830220738 | 87 | 199 | 4.0 | 9.0 | 0.00 | 0.00 | 0.00 | 37 | 1010.3 |
| 20260830220216 | 87 | 134 | 2.0 | 7.0 | 0.00 | 0.00 | 0.00 | 37 | 1010.5 |
| 20260830215210 | 87 | 162 | 3.0 | 10.0 | 0.00 | 0.00 | 0.00 | 37 | 1010.5 |
| 20260830213733 | 86 | 127 | 3.0 | 9.0 | 0.00 | 0.00 | 0.00 | 37 | 1010.8 |
| 20260830212729 | 87 | 147 | 3.0 | 6.0 | 0.00 | 0.00 | 0.00 | 37 | 1010.9 |
| 20260830211726 | 86 | 149 | 2.0 | 6.0 | 0.00 | 0.00 | 0.00 | 37 | 1011.0 |
| 20260830211200 | 85 | 117 | 3.0 | 9.0 | 0.00 | 0.00 | 0.00 | 39 | 1011.0 |
| 20260830205726 | 85 | 169 | 3.0 | 11.0 | 0.00 | 0.00 | 0.00 | 40 | 1011.0 |
| 20260830204720 | 84 | 150 | 3.0 | 9.0 | 0.00 | 0.00 | 0.00 | 40 | 1011.2 |
| 20260830203718 | 84 | 101 | 3.0 | 8.0 | 0.00 | 0.00 | 0.00 | 41 | 1011.3 |
| 20260830202717 | 83 | 131 | 3.0 | 6.0 | 0.00 | 0.00 | 0.00 | 41 | 1011.4 |
| 20260830201714 | 83 | 161 | 2.0 | 7.0 | 0.00 | 0.00 | 0.00 | 43 | 1011.5 |
| 20260830200714 | 82 | 260 | 3.0 | 7.0 | 0.00 | 0.00 | 0.00 | 44 | 1011.6 |
| 20260830200157 | 82 | 140 | 3.0 | 7.0 | 0.00 | 0.00 | 0.00 | 45 | 1011.6 |
| 20260830194702 | 81 | 98 | 3.0 | 11.0 | 0.00 | 0.00 | 0.00 | 45 | 1011.7 |
| 20260830193652 | 80 | 109 | 2.0 | 7.0 | 0.00 | 0.00 | 0.00 | 46 | 1011.8 |
| 20260830192650 | 79 | 270 | 2.0 | 6.0 | 0.00 | 0.00 | 0.00 | 47 | 1012.0 |
| 20260830191646 | 79 | 119 | 3.0 | 9.0 | 0.00 | 0.00 | 0.00 | 48 | 1012.1 |
| 20260830190644 | 79 | 105 | 2.0 | 6.0 | 0.00 | 0.00 | 0.00 | 47 | 1012.2 |
| 20260830185644 | 78 | 112 | 3.0 | 6.0 | 0.00 | 0.00 | 0.00 | 49 | 1012.1 |
| 20260830184644 | 77 | 148 | 2.0 | 6.0 | 0.00 | 0.00 | 0.00 | 50 | 1012.2 |
| 20260830183644 | 76 | 128 | 2.0 | 6.0 | 0.00 | 0.00 | 0.00 | 51 | 1012.3 |
| 20260830182644 | 75 | 178 | 2.0 | 7.0 | 0.00 | 0.00 | 0.00 | 52 | 1012.3 |
| 20260830181642 | 74 | 232 | 2.0 | 5.0 | 0.00 | 0.00 | 0.00 | 53 | 1012.4 |
| 20260830180628 | 73 | 209 | 1.0 | 6.0 | 0.00 | 0.00 | 0.00 | 55 | 1012.4 |
| 20260830175616 | 72 | 217 | 2.0 | 5.0 | 0.00 | 0.00 | 0.00 | 56 | 1012.3 |
| 20260830174612 | 71 | 221 | 2.0 | 6.0 | 0.00 | 0.00 | 0.00 | 58 | 1012.4 |
| 20260830173613 | 71 | 190 | 1.0 | 4.0 | 0.00 | 0.00 | 0.00 | 60 | 1012.5 |
| 20260830172610 | 69 | 281 | 1.0 | 3.0 | 0.00 | 0.00 | 0.00 | 60 | 1012.5 |
| 20260830172057 | 68 | 172 | 1.0 | 3.0 | 0.00 | 0.00 | 0.00 | 62 | 1012.3 |
| 20260830171026 | 67 | 176 | 1.0 | 3.0 | 0.00 | 0.00 | 0.00 | 64 | 1012.4 |
| 20260830165552 | 66 | 261 | 0.0 | 2.0 | 0.00 | 0.00 | 0.00 | 65 | 1012.5 |
| 20260830164544 | 65 | 288 | 0.0 | 3.0 | 0.00 | 0.00 | 0.00 | 66 | 1012.5 |
| 20260830163532 | 65 | 231 | 1.0 | 3.0 | 0.00 | 0.00 | 0.00 | 67 | 1012.5 |
| 20260830163455 | 64 | 277 | 0.0 | 3.0 | 0.00 | 0.00 | 0.00 | 69 | 1012.6 |
| 20260830161508 | 62 | 238 | 0.0 | 3.0 | 0.00 | 0.00 | 0.00 | 72 | 1012.7 |
| 20260830160451 | 61 | 211 | 1.0 | 3.0 | 0.00 | 0.00 | 0.00 | 73 | 1012.6 |
| 20260830155443 | 59 | 259 | 0.0 | 0.0 | 0.00 | 0.00 | 0.00 | 76 | 1012.6 |
| 20260830154912 | 58 | 159 | 0.0 | 0.0 | 0.00 | 0.00 | 0.00 | 79 | 1012.6 |
| 20260830153430 | 56 | 98 | 0.0 | 0.0 | 0.00 | 0.00 | 0.00 | 81 | 1012.5 |
| 20260830152430 | 55 | 98 | 0.0 | 0.0 | 0.00 | 0.00 | 0.00 | 83 | 1012.5 |
| 20260830151430 | 54 | 98 | 0.0 | 0.0 | 0.00 | 0.00 | 0.00 | 83 | 1012.6 |
| 20260830150426 | 54 | 100 | 0.0 | 0.0 | 0.00 | 0.00 | 0.00 | 84 | 1012.5 |
| 20260830150310 | 53 | 100 | 0.0 | 0.0 | 0.00 | 0.00 | 0.00 | 86 | 1012.6 |
| 20260830144346 | 53 | 100 | 0.0 | 0.0 | 0.00 | 0.00 | 0.00 | 85 | 1012.4 |
| 20260830143339 | 53 | 100 | 0.0 | 2.0 | 0.00 | 0.00 | 0.00 | 86 | 1012.4 |
| 20260830142323 | 53 | 100 | 0.0 | 0.0 | 0.00 | 0.00 | 0.00 | 85 | 1012.2 |
| 20260830142134 | 53 | 100 | 0.0 | 0.0 | 0.00 | 0.00 | 0.00 | 84 | 1011.9 |
| 20260830141809 | 53 | 100 | 0.0 | 0.0 | 0.00 | 0.00 | 0.00 | 85 | 1012.1 |
| 20260830135244 | 53 | 100 | 0.0 | 0.0 | 0.00 | 0.00 | 0.00 | 85 | 1011.9 |
| 20260830134239 | 53 | 100 | 0.0 | 0.0 | 0.00 | 0.00 | 0.00 | 84 | 1011.8 |
| 20260830133218 | 54 | 100 | 0.0 | 0.0 | 0.00 | 0.00 | 0.00 | 84 | 1011.6 |
| 20260830132200 | 54 | 100 | 0.0 | 0.0 | 0.00 | 0.00 | 0.00 | 83 | 1011.5 |
| 20260830131157 | 54 | 100 | 0.0 | 0.0 | 0.00 | 0.00 | 0.00 | 83 | 1011.5 |
| 20260830130623 | 54 | 100 | 0.0 | 1.0 | 0.00 | 0.00 | 0.00 | 82 | 1011.4 |
| 20260830125135 | 55 | 100 | 0.0 | 2.0 | 0.00 | 0.00 | 0.00 | 82 | 1011.4 |